Dewpoint
55 55 56 58 58 57 56 57 56 55 55 53 51 51 49 49 47 46 46 48 47 45 44 43 42 41 40 41 39 38 36 37 36 34 33 32 32 29 29 28 28 28 28
54 55 56 56 57 56 57 57 55 55 55 53 48 48 47 45 45 45 45 46 44 43 42 39 39 39 37 36 39 38 38 36 35 33 32 30 31 30 28 28 27 28 28
53 54 56 55 56 55 56 56 55 55 54 51 46 45 46 44 44 43 43 41 39 36 34 35 35 35 35 34 37 38 37 35 34 33 33 30 28 28 29 28 27 28 28
51 53 55 54 55 55 56 57 55 55 54 49 46 44 45 43 43 43 36 32 35 35 35 36 37 37 38 39 39 39 38 36 33 33 32 31 30 28 26 26 26 28 26
48 51 54 54 54 55 55 57 55 55 54 50 47 47 46 45 43 37 31 34 35 35 36 37 38 39 40 39 38 37 36 36 34 33 33 31 29 27 25 22 23 25 26
47 49 53 54 54 54 55 57 55 55 55 52 50 47 48 44 40 36 34 34 34 36 36 37 39 39 39 39 39 38 36 35 35 35 34 31 29 26 25 23 24 23 25
45 46 51 52 53 53 55 57 56 54 55 54 51 49 47 45 42 37 38 35 35 35 34 35 38 40 41 40 39 38 37 36 35 35 34 33 31 29 27 26 25 23 24
44 45 48 52 53 54 55 56 56 56 55 56 53 50 48 46 42 37 36 35 32 35 35 35 38 41 41 40 40 38 37 37 37 35 35 33 32 31 29 26 25 23 23
44 46 46 51 53 54 55 56 56 56 54 54 51 49 48 46 41 42 38 34 33 34 37 36 36 40 40 39 40 39 38 37 36 35 34 33 32 30 29 28 26 25 24
45 47 48 51 53 54 55 56 56 54 51 50 49 47 46 45 43 39 37 35 36 36 35 35 35 35 35 36 38 38 37 35 35 34 32 31 31 30 31 28 28 27 25
48 49 51 52 53 54 55 54 53 50 47 46 47 47 45 44 41 38 36 35 36 35 35 34 35 34 34 34 33 33 32 30 30 32 32 31 31 31 30 27 26 24 22
47 50 51 52 53 54 52 50 48 45 48 46 45 45 43 40 37 36 34 34 35 35 34 34 34 34 34 34 33 32 31 31 30 31 31 31 30 29 28 26 23 21 20
43 50 51 51 51 48 48 48 48 45 43 44 45 43 42 38 35 34 35 35 35 34 34 33 33 34 34 33 33 33 32 31 31 31 31 30 30 28 26 24 22 20 18
44 48 49 49 48 48 48 47 47 45 44 44 42 43 42 39 37 36 36 34 34 33 33 33 33 33 33 33 33 32 32 31 31 31 31 30 29 28 25 22 20 18 18
44 45 46 47 48 48 48 47 46 45 44 43 42 42 41 40 39 35 35 35 35 33 33 33 33 35 36 32 33 32 31 30 30 30 29 29 28 28 24 19 19 17 17
38 39 41 41 42 45 47 46 44 42 42 42 41 41 40 38 37 36 35 34 33 32 32 33 38 38 33 34 34 34 31 29 28 27 25 24 29 30 31 30 24 20 19
34 34 34 37 40 43 43 44 43 42 41 40 39 39 38 37 37 34 34 34 35 37 38 39 37 35 33 33 35 35 32 29 28 26 24 23 21 25 23 28 28 26 24
32 32 32 34 37 42 43 41 40 39 38 37 37 37 36 36 35 35 36 37 39 39 39 38 36 33 31 33 34 33 32 29 26 24 24 24 22 22 22 22 21 19 18
32 32 32 32 33 33 34 35 35 35 35 35 35 35 36 36 37 37 38 39 39 39 38 36 32 32 31 32 33 33 29 26 24 24 24 23 22 24 27 21 20 18 18
33 33 34 34 34 34 34 33 33 34 34 35 35 37 38 39 39 39 39 39 38 37 33 32 32 31 30 32 33 33 26 25 24 24 24 29 24 26 28 25 21 20 18
33 33 33 33 34 34 35 34 35 35 37 38 39 39 40 40 39 39 39 37 36 34 31 29 29 29 30 29 32 33 26 26 25 25 24 25 29 29 28 27 23 21 20
33 33 33 33 34 34 35 35 35 37 38 38 39 39 40 39 38 37 36 32 30 28 28 26 28 28 28 29 30 32 33 27 25 25 25 26 27 28 28 26 26 25 24
32 33 33 33 34 34 35 34 35 36 36 35 34 33 32 32 32 30 29 29 28 26 27 28 28 28 29 28 29 31 32 32 26 26 26 26 27 29 28 28 27 25 24
31 32 32 31 31 31 31 31 31 30 30 29 29 30 29 30 29 29 29 28 27 26 28 28 28 28 28 27 27 27 28 29 29 27 27 26 26 26 26 25 27 27 24
32 31 30 30 29 30 31 31 31 30 30 30 29 29 28 28 28 28 28 28 28 28 28 29 28 28 28 29 29 29 27 27 28 28 22 23 24 25 25 24 24 24 23
31 30 29 29 30 30 30 30 30 29 28 27 27 26 26 25 27 27 25 28 30 30 31 32 31 30 31 32 32 32 31 31 30 28 26 25 25 24 24 24 24 24 23
Lifted_Index
-3 -2 -2 -2 -2 -3 -2 -2 -2 -2 -2 -2 -2 -2 -2 -1 -0 1 1 2 3 5 6 7 7 8 8 9 9 10 10 10 10 10 10 10 10 11 11 11 11 12 12
-3 -3 -2 -2 -2 -3 -3 -2 -2 -3 -2 -2 -2 -2 -1 -0 1 2 3 4 5 6 7 7 7 8 8 8 9 9 8 9 9 10 9 9 10 10 11 11 11 12 12
-3 -3 -3 -2 -3 -3 -3 -3 -3 -3 -2 -2 -2 -1 -1 0 2 3 4 5 6 7 7 7 7 8 8 8 9 9 7 7 9 10 10 9 9 10 11 11 12 12 12
-4 -3 -3 -3 -3 -3 -3 -3 -3 -2 -2 -2 -2 -1 -1 0 1 3 4 6 6 7 7 7 7 8 8 9 9 7 6 7 9 10 11 10 11 11 12 12 12 13 13
-4 -4 -4 -4 -4 -3 -3 -3 -3 -2 -2 -2 -2 -1 -1 -0 1 2 3 5 6 6 6 7 7 8 9 9 7 6 7 9 11 12 12 12 13 13 13 13 13 13 13
-3 -3 -4 -4 -4 -4 -4 -3 -3 -3 -2 -2 -2 -2 -1 -1 0 1 2 3 5 5 5 6 8 9 9 8 7 7 9 11 12 13 13 13 13 13 13 13 12 12 12
-2 -2 -3 -3 -4 -4 -4 -3 -3 -2 -2 -2 -2 -2 -1 -1 -0 -0 0 2 3 4 5 6 8 9 8 7 8 10 11 12 12 13 13 13 13 13 12 12 12 12 12
-1 -1 -2 -2 -3 -3 -3 -3 -2 -2 -2 -2 -2 -2 -1 -1 -1 -0 -0 1 2 3 5 6 7 8 7 7 9 11 12 12 12 13 13 12 12 12 12 12 12 11 11
0 -0 -1 -1 -2 -2 -2 -2 -2 -2 -2 -2 -2 -2 -1 -1 -1 -1 -0 1 2 4 5 6 7 7 8 9 11 12 12 12 12 12 12 12 12 11 11 11 11 10 10
0 -0 -1 -1 -1 -2 -2 -2 -2 -2 -2 -2 -2 -2 -2 -1 -1 -1 0 1 3 5 6 7 8 9 10 11 12 12 12 12 12 12 12 12 11 11 11 11 10 10 10
-0 -0 -1 -1 -1 -2 -2 -2 -2 -2 -2 -2 -2 -2 -2 -1 -1 -0 1 2 4 5 7 8 9 10 11 12 12 12 12 12 12 12 12 12 11 11 10 10 9 9 9
-0 -1 -1 -1 -2 -2 -2 -2 -2 -2 -2 -2 -2 -2 -1 -1 -1 0 1 3 5 6 8 9 10 11 11 11 11 12 12 12 11 11 11 11 11 10 9 9 9 9 9
-0 -1 -1 -2 -2 -2 -3 -3 -2 -2 -2 -2 -2 -1 -1 -0 0 1 2 4 6 8 9 10 10 11 11 10 11 11 11 11 11 11 10 10 9 9 8 8 8 9 9
0 -0 -1 -2 -2 -3 -3 -3 -2 -2 -2 -1 -1 -1 -0 0 1 2 3 5 7 8 9 10 10 10 10 10 11 11 11 10 10 10 9 9 8 7 7 7 8 8 9
0 0 -1 -1 -2 -2 -1 -1 -1 -0 -0 -0 -0 0 1 1 2 3 4 6 8 9 10 10 10 9 9 9 10 11 10 10 9 9 8 7 6 6 6 7 7 8 9
1 1 1 1 1 1 2 2 2 2 2 2 1 1 1 1 2 3 5 7 8 9 10 10 10 9 9 10 11 11 10 9 9 8 7 6 5 5 6 7 8 9 9
3 3 3 3 3 4 4 4 4 4 4 3 2 1 1 2 3 5 6 8 9 10 10 10 9 9 9 10 10 10 10 9 8 7 5 5 5 5 6 7 8 9 10
4 4 4 4 5 5 5 5 5 5 4 3 3 2 2 3 4 6 7 9 10 10 10 10 9 8 9 10 10 10 9 9 7 6 5 4 5 5 6 7 8 9 10
4 4 4 5 5 5 6 6 6 5 4 3 3 3 4 5 6 7 8 9 10 10 10 9 8 8 9 10 10 10 9 8 7 5 4 4 5 6 7 8 9 9 9
4 4 4 5 5 6 6 6 6 5 5 4 5 5 6 6 7 8 9 9 9 9 9 9 9 9 10 11 10 10 9 7 6 5 4 4 5 6 7 8 8 9 9
4 4 4 5 5 6 6 6 6 7 7 7 7 8 8 8 8 8 9 9 10 10 10 10 10 10 11 10 10 9 7 6 5 4 4 4 5 6 7 7 8 8 9
4 4 4 5 6 7 7 7 8 8 9 9 10 9 9 9 9 10 10 11 11 11 11 11 11 11 10 10 9 7 6 5 4 4 4 4 5 6 6 6 6 7 8
4 4 5 6 7 8 9 9 9 10 11 11 10 10 11 11 12 12 13 13 13 12 12 11 11 11 10 9 7 6 5 5 4 4 4 4 5 5 5 5 5 6 6
5 5 6 7 8 9 10 11 11 12 12 11 12 12 12 13 14 14 14 13 13 12 12 11 11 10 9 7 6 5 5 4 4 4 4 5 5 5 5 4 4 5 5
6 6 7 8 9 11 12 12 13 13 13 13 14 14 14 14 14 14 14 13 12 12 12 11 10 9 8 6 5 4 4 4 4 4 5 5 5 4 4 4 3 4 4
7 7 8 9 10 12 12 13 14 14 14 14 15 15 15 14 14 14 13 13 12 12 12 11 10 9 7 6 5 5 4 4 4 4 5 5 5 4 4 3 3 3 3